Theta_e
350 352 351 352 353 351 346 351 349 345 346 347 346 344 343 341 344 348 347 351 350 352 351 351 345 350 351 351 351 351 351 351 350 349 349 349 350 347 343 344 341 342 345
351 352 351 351 352 352 352 351 348 345 344 345 345 344 344 347 350 347 348 350 352 351 352 351 351 351 351 351 350 351 350 350 349 350 350 350 350 348 349 348 346 342 344
352 352 352 351 351 351 351 350 350 350 350 346 344 347 349 350 348 350 348 351 351 353 351 350 351 351 350 350 348 350 349 349 348 348 346 343 345 347 349 348 349 348 348
353 352 351 351 350 349 350 351 350 350 352 351 351 350 348 351 352 352 350 350 350 351 349 347 350 351 348 348 350 350 350 349 349 350 343 339 340 344 346 349 349 345 343
354 351 352 351 350 351 349 349 349 350 351 352 351 349 351 352 352 352 352 352 351 350 347 346 350 351 349 350 348 351 350 348 345 345 345 341 337 349 344 348 343 340 336
353 352 353 351 352 352 351 350 350 350 349 352 351 352 352 352 352 352 352 352 351 350 347 346 348 351 349 351 350 348 347 346 340 345 346 343 341 341 348 348 346 346 343
354 352 355 352 351 351 350 350 348 350 351 350 350 349 351 352 352 352 352 352 351 351 348 350 349 349 349 349 348 347 346 345 340 340 344 345 347 343 348 347 347 346 346
354 352 355 354 353 353 351 351 350 351 353 351 351 350 351 352 349 351 352 352 349 351 347 350 351 349 348 344 342 343 345 349 345 344 341 345 347 344 345 348 347 343 337
354 353 356 356 355 354 354 351 351 353 353 352 353 347 348 351 351 351 351 350 350 350 346 349 351 349 347 343 343 345 345 345 348 346 345 341 343 344 344 348 345 347 339
355 354 354 356 354 354 354 353 349 351 353 352 352 348 349 351 351 352 347 348 351 347 347 351 349 350 346 342 343 344 345 344 344 345 343 339 336 344 346 347 342 339 337
354 354 351 355 352 353 356 356 352 353 354 353 352 352 348 351 351 351 348 347 349 348 348 350 349 349 342 340 341 341 344 347 344 345 344 340 337 341 347 347 345 342 345
352 354 353 349 353 350 353 353 354 353 353 352 351 352 351 352 350 351 350 349 351 351 348 350 348 348 340 345 344 340 347 346 348 348 347 345 344 338 344 345 346 341 344
350 351 352 351 349 353 353 353 353 353 353 353 353 353 352 351 352 351 350 349 351 350 348 347 348 348 346 345 344 345 345 346 346 348 346 346 346 344 338 344 344 339 340
348 350 351 350 349 352 352 352 352 353 353 351 352 351 351 350 352 351 349 350 351 351 351 348 347 349 349 347 343 344 345 344 345 346 345 346 346 345 339 340 342 339 337
346 348 350 351 350 351 352 352 353 352 352 351 351 350 350 349 349 349 349 348 350 350 351 351 349 349 348 346 344 344 344 344 345 347 346 345 346 345 341 341 341 339 338
346 344 348 349 350 350 351 351 352 350 348 350 351 350 346 349 349 347 350 350 350 351 351 350 351 349 348 348 347 347 346 345 347 349 347 347 346 345 343 341 343 343 339
346 342 346 348 349 349 349 349 349 350 351 349 348 346 344 344 345 348 347 347 350 350 351 351 350 350 349 349 348 346 345 346 349 350 350 349 349 347 345 342 342 344 344
345 342 342 347 348 349 349 349 348 348 349 349 348 346 347 345 344 347 349 350 347 347 346 351 349 348 349 350 350 349 346 346 349 350 350 349 350 349 349 345 344 344 344
347 342 337 345 346 348 349 349 350 351 350 351 349 349 346 345 346 348 350 349 346 347 349 347 348 350 349 348 348 350 350 349 349 349 350 350 348 349 349 349 346 345 345
347 344 339 337 343 347 348 349 350 350 350 350 350 349 348 348 348 347 347 348 346 350 347 350 350 348 349 349 349 348 345 347 349 349 349 349 350 350 350 351 351 349 347
347 345 341 339 343 344 346 347 347 345 345 347 348 348 346 347 347 347 340 343 346 347 346 345 347 346 348 348 346 349 349 349 348 348 348 348 349 350 351 349 351 351 351
350 347 345 342 346 344 344 345 345 346 346 346 347 348 348 346 345 346 345 345 346 346 346 344 345 345 345 345 348 348 348 345 346 346 347 348 348 348 348 349 350 350 350
353 350 348 346 347 347 348 347 348 348 349 348 348 347 348 348 347 347 346 346 346 346 348 346 345 343 343 346 347 345 350 346 345 346 347 346 348 348 349 350 350 349 349
354 354 352 351 350 350 349 349 348 348 349 349 349 348 348 346 347 346 347 347 346 346 347 349 346 343 339 341 343 344 343 345 344 344 346 346 345 347 348 349 348 347 346
355 355 354 354 353 352 350 350 349 348 348 350 349 350 350 348 346 344 345 345 345 345 345 346 346 343 339 340 341 344 346 346 345 344 345 342 344 345 346 346 345 344 340
356 356 355 355 354 353 351 350 349 349 349 349 350 350 350 349 348 345 343 345 344 344 345 345 345 343 341 341 341 341 343 344 345 345 345 344 344 343 345 345 343 341 338
Wind_Speed
20 23 25 23 21 19 18 18 19 19 19 22 25 23 19 18 16 16 14 14 13 12 11 11 13 14 14 14 13 17 16 14 14 15 15 15 15 15 11 12 13 11 12
28 25 26 25 24 20 18 17 19 19 20 22 23 20 18 17 16 16 15 13 12 12 12 13 12 13 14 15 14 15 14 15 15 15 16 15 15 13 12 12 12 11 12
27 26 26 26 25 23 21 19 19 18 18 19 18 17 17 17 17 15 15 14 13 13 13 13 12 13 13 13 14 13 13 14 14 13 13 12 11 12 12 11 12 12 12
26 25 25 26 25 24 23 22 20 20 18 18 18 17 16 16 15 15 14 13 14 14 13 11 12 13 13 13 14 14 14 13 13 12 11 10 10 11 11 10 11 9 10
25 25 25 27 26 24 24 23 21 20 18 17 16 16 16 15 14 14 14 13 13 14 13 12 13 13 13 13 15 14 13 11 10 10 10 9 9 10 11 10 9 8 10
25 23 25 27 25 24 23 23 21 19 19 17 16 14 14 14 14 14 14 14 13 15 14 13 13 13 13 12 13 12 11 10 10 9 9 8 8 10 11 10 9 9 8
25 24 25 26 24 23 23 21 21 20 18 17 16 15 14 14 14 13 13 13 14 14 13 13 12 12 13 14 13 11 10 9 8 7 7 7 7 9 12 10 9 9 9
24 25 23 25 23 22 21 21 20 20 17 17 17 16 14 14 14 14 14 13 13 14 13 13 13 12 13 13 11 9 7 7 6 6 5 5 7 9 8 10 8 7 8
21 24 23 22 22 21 21 21 19 19 18 16 16 14 14 13 12 13 14 14 13 12 13 14 13 12 12 11 10 8 5 5 7 6 6 6 7 6 6 7 7 9 7
20 22 26 21 21 22 21 21 21 19 17 15 15 15 14 13 12 13 14 13 12 12 13 13 13 12 12 10 9 7 4 4 7 7 7 6 8 8 7 8 8 9 8
18 20 23 23 22 21 19 19 20 19 17 15 14 14 14 11 12 12 12 13 13 11 13 12 12 13 13 11 10 8 5 4 7 6 5 7 8 9 10 10 9 9 10
20 20 21 22 22 21 18 18 17 17 16 14 13 13 13 12 12 11 11 12 11 11 11 12 13 13 12 11 10 9 6 5 6 6 6 8 10 11 11 12 12 11 11
23 20 20 20 22 22 21 19 17 16 15 14 14 13 12 12 11 11 10 10 11 11 11 11 12 12 12 12 11 10 9 7 7 6 7 7 12 14 13 12 14 13 13
22 21 21 20 22 20 19 20 19 19 17 15 14 14 12 12 12 11 11 11 11 12 11 12 12 12 12 11 11 11 10 9 9 8 8 7 9 14 13 12 13 13 14
21 21 22 21 22 21 21 20 20 20 19 17 16 15 13 13 12 11 11 11 12 11 11 11 11 11 11 11 12 12 12 12 11 10 9 10 9 14 14 12 12 14 15
22 22 21 23 23 22 21 20 19 18 21 20 17 17 18 14 13 12 11 12 12 12 11 11 11 11 12 12 13 13 13 12 12 11 11 12 12 14 18 16 12 14 14
24 22 22 24 23 23 22 20 19 18 18 20 21 19 20 19 18 14 14 15 14 13 12 11 11 11 12 12 13 13 14 14 13 12 12 13 12 15 17 19 18 16 15
22 26 23 22 23 22 21 20 18 17 18 17 19 22 20 19 19 16 14 15 16 14 14 12 12 13 13 12 13 13 14 14 14 12 12 13 13 12 15 20 18 20 19
25 26 27 25 24 23 20 19 18 17 17 18 19 17 21 21 19 17 17 17 17 15 14 16 15 14 14 15 14 14 13 13 13 13 14 14 16 14 15 16 21 20 19
23 26 31 27 24 23 19 17 16 16 17 18 18 20 20 22 20 19 20 21 20 15 17 14 15 17 16 17 13 14 14 13 13 13 14 13 13 14 14 16 15 16 23
23 23 27 27 23 22 20 20 19 19 18 18 17 18 21 21 21 23 25 25 23 20 19 19 17 19 18 15 13 12 12 14 15 14 15 14 14 13 14 15 14 14 15
26 24 25 27 24 24 21 20 16 17 17 18 17 16 18 19 20 21 22 23 20 20 21 20 18 16 15 17 10 8 5 12 14 15 14 15 15 14 14 14 13 14 14
26 28 28 30 26 25 20 18 14 11 11 16 17 18 17 19 20 19 19 20 19 18 16 18 21 19 12 7 15 9 3 7 2 6 10 12 13 13 13 12 11 10 10
31 26 26 27 26 23 22 19 20 16 14 15 17 17 16 18 17 18 18 18 17 17 18 18 24 27 25 19 13 21 14 3 4 4 4 8 11 13 13 11 10 8 8
28 29 29 27 26 23 23 21 20 17 14 10 11 14 14 14 16 15 16 15 15 18 21 22 21 23 30 24 24 13 17 10 8 9 9 10 8 11 11 10 8 7 9
28 27 27 28 26 24 24 23 22 19 15 12 12 12 12 12 12 14 15 15 16 18 19 21 19 22 27 26 19 16 11 7 10 11 10 15 15 15 12 11 10 11 12
Wind_Direction
163 162 160 157 155 150 144 141 144 144 137 141 147 148 147 145 143 142 144 139 137 130 122 118 125 128 124 122 118 128 129 127 122 119 118 120 119 119 123 123 118 123 123
158 161 159 160 158 153 146 142 142 146 144 143 146 150 147 145 145 145 146 144 136 131 128 123 123 133 131 127 125 127 127 127 126 124 122 119 120 124 124 122 122 125 124
155 158 161 161 160 156 150 148 144 140 140 143 150 152 148 151 151 148 148 144 135 132 127 126 128 133 128 132 134 132 133 134 130 131 130 128 130 129 126 129 129 126 126
154 158 162 163 163 160 155 150 147 143 145 146 148 146 147 147 149 155 151 149 139 130 126 133 131 135 131 136 135 137 133 131 132 138 126 124 131 133 137 134 135 134 136
157 160 165 166 167 164 161 154 149 148 150 149 150 153 148 146 146 149 151 145 139 134 133 136 135 136 135 139 140 134 138 142 147 141 139 130 135 144 146 146 145 138 123
159 162 166 167 169 167 164 158 153 155 153 152 154 154 151 151 149 146 147 146 144 138 137 138 141 139 141 139 138 141 144 137 130 138 145 139 136 162 151 152 147 145 134
162 165 167 168 171 171 168 164 160 159 158 156 156 159 161 154 151 148 150 143 147 137 144 142 145 141 149 148 145 147 146 149 137 141 149 148 149 166 160 152 163 159 157
165 167 171 172 172 171 170 169 167 163 162 160 158 161 165 164 161 154 155 149 149 143 149 151 151 150 151 150 152 157 165 176 172 158 162 167 184 170 180 168 175 183 178
170 167 172 174 175 175 172 173 172 169 166 166 164 167 168 167 165 160 155 152 152 148 154 156 150 157 157 159 162 165 166 197 191 187 183 182 195 189 181 198 184 195 189
170 177 177 179 180 178 179 178 175 174 173 172 171 171 173 170 168 167 162 159 158 155 159 159 162 167 168 171 172 178 160 163 170 164 173 189 196 188 200 226 213 212 206
179 183 188 184 187 184 179 182 179 176 179 176 177 177 171 180 172 176 172 169 168 161 167 166 172 177 178 185 187 189 180 187 183 179 194 218 210 207 206 228 229 219 218
186 186 187 191 185 187 183 185 182 183 184 186 184 182 179 182 179 179 177 170 171 172 175 179 181 184 182 193 202 204 210 206 195 205 219 237 233 223 218 235 239 230 222
188 189 187 185 190 184 182 183 186 186 190 191 190 186 180 175 176 178 178 181 181 184 185 191 191 189 197 200 204 208 218 220 223 239 239 257 238 231 230 231 238 233 231
189 193 190 188 188 188 186 186 188 189 190 191 193 193 188 181 183 186 186 188 187 190 195 193 198 203 205 209 213 218 224 230 235 248 261 268 240 228 232 238 244 239 236
191 192 193 191 191 191 189 191 190 194 195 194 195 199 199 199 194 193 196 198 200 200 200 201 206 208 218 219 219 223 229 236 237 247 255 261 258 234 234 240 245 243 242
197 197 193 195 194 195 195 196 196 199 205 203 199 200 206 206 209 212 212 212 210 208 210 210 213 217 221 224 228 230 231 233 239 247 253 258 270 249 239 238 246 256 254
201 198 196 196 196 198 199 201 202 204 205 212 213 211 212 215 217 219 226 228 222 215 214 217 220 225 226 230 234 235 237 233 240 251 254 255 265 259 248 243 245 250 255
199 200 197 195 197 199 201 203 206 211 210 216 219 221 220 223 223 223 229 235 230 221 223 216 220 223 228 232 237 235 236 237 244 248 252 255 253 261 259 250 249 252 254
203 202 200 197 199 199 203 207 210 213 214 219 221 225 227 229 228 231 236 239 238 236 228 228 225 227 232 237 242 239 237 240 248 248 248 252 253 253 253 256 252 253 257
203 206 204 202 202 200 199 204 211 218 222 223 224 224 223 225 228 234 246 250 243 238 236 230 234 234 236 245 246 250 250 250 248 247 248 251 249 250 252 255 258 259 259
199 199 201 199 199 195 197 198 206 215 215 215 215 222 224 227 226 232 231 249 246 242 240 245 242 242 245 249 248 252 254 251 248 248 248 247 247 248 248 259 256 258 264
198 198 199 202 199 199 199 198 204 212 219 215 217 217 219 220 225 235 231 235 238 241 243 241 234 236 248 240 231 240 258 242 245 242 241 243 246 247 251 253 254 260 267
198 198 199 201 201 201 196 193 201 210 218 213 216 215 218 220 222 230 240 244 245 240 241 239 230 229 230 259 237 224 207 238 255 215 232 240 247 250 251 251 250 256 266
199 197 198 199 199 198 192 193 198 204 206 215 210 211 213 224 228 228 237 243 244 240 243 239 238 235 240 236 261 235 227 223 249 255 229 247 250 249 248 245 246 251 263
194 192 194 196 193 192 193 195 199 206 208 201 199 201 203 217 224 234 228 233 236 242 249 245 237 228 231 218 230 237 229 236 247 264 276 259 257 252 247 242 243 246 259
193 189 192 189 190 187 193 196 201 205 200 194 199 197 195 207 209 211 219 227 239 241 239 243 248 225 220 218 224 233 228 222 235 240 259 267 270 265 259 248 243 255 261